Winchester, TN

3:57 PM CDT on March 27, 2017 (GMT -0500)
Winchester Municipal

Weather History for KBGF - December, 2012

Change the Weather History Date:

Monday, December 17, 2012

  Actual Average (KTHA) Record (KTHA)
Temperature  
Mean Temperature 56 °F -  
Max Temperature 60 °F 47 °F 60 °F (2012)
Min Temperature 51 °F 28 °F 26 °F (2013)
Degree Days  
Heating Degree Days 10    
Growing Degree Days 6 (Base 50)    
Moisture  
Dew Point 53 °F    
Average Humidity 89    
Maximum Humidity 100    
Minimum Humidity 72    
Precipitation  
Precipitation 0.00 in - - ()
Sea Level Pressure  
Sea Level Pressure 29.74 in    
Wind  
Wind Speed 7 mph (South)    
Max Wind Speed 12 mph    
Max Gust Speed -    
Visibility 9 miles    
Events      
Averages and records for this station are not official NWS values.
T = Trace of Precipitation, MM = Missing Value Source: NWS Daily Summary

Daily Weather History Graph

Daily Weather History Graph

Search for Another Location

Airport or City:

Trip Planner

Search our weather history database for the weather conditions in past years. The results will help you decide how hot, cold, wet, or windy it might be!

Date:

Astronomy

Dec. 17, 2012 Rise Set
Actual Time 7:46 AM EST 5:34 PM EST
Civil Twilight 7:18 AM EST 6:02 PM EST
Nautical Twilight 6:46 AM EST 6:34 PM EST
Astronomical Twilight 6:15 AM EST 7:05 PM EST
Moon 11:04 AM EST (12/17) 10:45 PM EST (12/17)
Length of Visible Light 10h 44m
Length of Day
9h 47m
Waxing Crescent, 24% of the Moon is Illuminated
Dec 17
Waxing Crescent
Dec 20
First Quarter
Dec 28
Full
Jan 4
Last Quarter
Jan 11
New

Hourly Weather History & Observations

Time (EST) Temp. Dew Point Humidity Pressure Visibility Wind Dir Wind Speed Gust Speed Precip Events Conditions
12:15 AM 55.4 °F 51.8 °F 88% 29.81 in 10.0 mi South 9.2 mph - N/A   Clear
12:35 AM 55.4 °F 51.8 °F 88% 29.82 in 10.0 mi South 11.5 mph - N/A   Partly Cloudy
12:55 AM 55.4 °F 51.8 °F 88% 29.81 in 10.0 mi South 11.5 mph - N/A   Mostly Cloudy
1:35 AM 55.4 °F 51.8 °F 88% 29.81 in 10.0 mi South 6.9 mph - N/A   Scattered Clouds
1:55 AM 55.4 °F 51.8 °F 88% 29.81 in 10.0 mi South 8.1 mph - N/A   Scattered Clouds
2:15 AM 55.4 °F 51.8 °F 88% 29.81 in 10.0 mi South 6.9 mph - N/A   Partly Cloudy
2:35 AM 55.4 °F 51.8 °F 88% 29.80 in 10.0 mi South 5.8 mph - N/A   Mostly Cloudy
2:55 AM 55.4 °F 51.8 °F 88% 29.81 in 10.0 mi South 3.5 mph - N/A   Overcast
3:15 AM 55.4 °F 51.8 °F 88% 29.81 in 10.0 mi South 5.8 mph - N/A   Overcast
3:35 AM 55.4 °F 51.8 °F 88% 29.80 in 10.0 mi South 8.1 mph - N/A   Overcast
3:55 AM 55.4 °F 51.8 °F 88% 29.81 in 10.0 mi South 5.8 mph - N/A   Overcast
4:15 AM 55.4 °F 51.8 °F 88% 29.80 in 10.0 mi South 5.8 mph - N/A   Overcast
4:35 AM 55.4 °F 51.8 °F 88% 29.79 in 10.0 mi South 4.6 mph - N/A   Overcast
4:55 AM 55.4 °F 51.8 °F 88% 29.79 in 10.0 mi South 5.8 mph - N/A   Overcast
5:15 AM 55.4 °F 51.8 °F 88% 29.78 in 10.0 mi South 5.8 mph - N/A   Overcast
5:35 AM 55.4 °F 51.8 °F 88% 29.78 in 10.0 mi SSE 6.9 mph - N/A   Overcast
5:55 AM 55.4 °F 51.8 °F 88% 29.78 in 10.0 mi South 5.8 mph - N/A   Overcast
6:15 AM 55.4 °F 53.6 °F 94% 29.78 in 10.0 mi South 6.9 mph - N/A   Overcast
6:35 AM 55.4 °F 53.6 °F 94% 29.77 in 9.0 mi SSE 6.9 mph - N/A   Overcast
6:55 AM 55.4 °F 53.6 °F 94% 29.78 in 10.0 mi SSE 5.8 mph - N/A   Overcast
7:15 AM 55.4 °F 53.6 °F 94% 29.77 in 10.0 mi South 5.8 mph - N/A   Overcast
7:35 AM 55.4 °F 53.6 °F 94% 29.77 in 10.0 mi South 5.8 mph - N/A   Overcast
7:55 AM 55.4 °F 53.6 °F 94% 29.77 in 10.0 mi South 3.5 mph - N/A   Overcast
8:15 AM 55.4 °F 53.6 °F 94% 29.76 in 10.0 mi South 5.8 mph - N/A   Overcast
8:35 AM 55.4 °F 53.6 °F 94% 29.75 in 10.0 mi South 6.9 mph - N/A   Overcast
8:55 AM 55.4 °F 53.6 °F 94% 29.75 in 8.0 mi South 6.9 mph - N/A   Overcast
9:15 AM 55.4 °F 53.6 °F 94% 29.76 in 5.0 mi South 5.8 mph - N/A   Overcast
9:35 AM 55.4 °F 53.6 °F 94% 29.76 in 10.0 mi South 3.5 mph - N/A   Overcast
9:55 AM 55.4 °F 55.4 °F 100% 29.75 in 8.0 mi Calm Calm - N/A   Overcast
10:15 AM 55.4 °F 55.4 °F 100% 29.75 in 7.0 mi SSE 3.5 mph - N/A   Overcast
10:35 AM 55.4 °F 55.4 °F 100% 29.75 in 3.0 mi Calm Calm - N/A   Overcast
10:55 AM 57.2 °F 55.4 °F 94% 29.75 in 5.0 mi South 3.5 mph - N/A   Overcast
11:15 AM 57.2 °F 55.4 °F 94% 29.74 in 1.5 mi Calm Calm - N/A   Overcast
11:35 AM 57.2 °F 55.4 °F 94% 29.73 in 6.0 mi Calm Calm - N/A   Overcast
11:55 AM 57.2 °F 55.4 °F 94% 29.72 in 1.5 mi Variable 4.6 mph - N/A   Overcast
12:15 PM 57.2 °F 55.4 °F 94% 29.71 in 10.0 mi SW 5.8 mph - N/A   Overcast
12:35 PM 57.2 °F 55.4 °F 94% 29.70 in 10.0 mi WSW 8.1 mph - N/A   Overcast
12:55 PM 57.2 °F 55.4 °F 94% 29.70 in 10.0 mi SW 11.5 mph - N/A   Mostly Cloudy
1:15 PM 59.0 °F 55.4 °F 88% 29.69 in 10.0 mi SW 8.1 mph - N/A   Mostly Cloudy
1:35 PM 59.0 °F 55.4 °F 88% 29.69 in 10.0 mi WSW 9.2 mph - N/A   Mostly Cloudy
1:55 PM 59.0 °F 55.4 °F 88% 29.68 in 10.0 mi WSW 10.4 mph - N/A   Scattered Clouds
2:15 PM 59.0 °F 53.6 °F 82% 29.67 in 10.0 mi WSW 11.5 mph - N/A   Scattered Clouds
2:35 PM 59.0 °F 53.6 °F 82% 29.67 in 10.0 mi WSW 8.1 mph - N/A   Scattered Clouds
2:55 PM 59.0 °F 53.6 °F 82% 29.66 in 10.0 mi SW 10.4 mph - N/A   Partly Cloudy
3:15 PM 59.0 °F 53.6 °F 82% 29.66 in 10.0 mi SW 6.9 mph - N/A   Clear
3:35 PM 60.8 °F 53.6 °F 77% 29.66 in 10.0 mi WSW 9.2 mph - N/A   Partly Cloudy
3:55 PM 60.8 °F 53.6 °F 77% 29.66 in 10.0 mi SW 9.2 mph - N/A   Mostly Cloudy
4:15 PM 60.8 °F 51.8 °F 72% 29.65 in 10.0 mi SSW 6.9 mph - N/A   Partly Cloudy
4:35 PM 60.8 °F 51.8 °F 72% 29.64 in 10.0 mi South 4.6 mph - N/A   Partly Cloudy
4:55 PM 60.8 °F 51.8 °F 72% 29.65 in 10.0 mi SSW 6.9 mph - N/A   Clear
7:35 PM 51.8 °F 48.2 °F 88% 29.69 in 10.0 mi Calm Calm - N/A   Mostly Cloudy
7:55 PM 51.8 °F 48.2 °F 88% 29.70 in 10.0 mi Calm Calm - N/A   Mostly Cloudy
8:15 PM 51.8 °F 50.0 °F 94% 29.69 in 5.0 mi ENE 8.1 mph - N/A   Overcast
8:35 PM 51.8 °F 50.0 °F 94% 29.70 in - Calm Calm - N/A   Unknown